FENGYUN 1C DEB, 29851

Orbit data source: Space-Track

FENGYUN 1C DEB, 29851 is space debris in SSO originally from a launch on Mon, 10 May 1999 UTC launched from the Taiyaun Space Center, China (TSC). Fengyun 1C debris stems from the Chinese weather satellite Fengyun-1C, which was intentionally destroyed by a Chinese anti-satellite missile in 2007. This event dramatically increased the amount of space debris, with thousands of trackable fragments posing hazards to satellites and human spaceflight. The Fengyun 1C debris cloud has become a focal point in discussions about space sustainability and the need for international regulations to prevent the creation of new debris.

Loading next visibility...
Identifier
29851, 1999-025EV
Orbit
SSO
Country
Flag of CNCN / PRC
Related business
Manufacturer
Unknown
Mission
Spacecraft
Bus & Motor
Unknown
Mass
Unknown
Launch date (UTC)
1999-05-10 (27 years ago)
Launch vehicle
Unknown
Launch site
Taiyaun Space Center, China (TSC)
Object type
Payload
Rocket body
Debris
Shape & HBR
Unknown shape, 0.1 m
Radar Cross Section
Small (<0.1 m²)

Expand to show TLE details & history
Last TLE update: 1 day ago

TLE from 1 day ago
0 FENGYUN 1C DEB
1 29851U 99025EV  25354.13043484  .00000282  00000-0  27581-3 0  9994
2 29851  99.5832  35.1943 0142338 207.9662 219.7867 13.83605092954691
Epoch: 2025-12-20T03:07Z
TLE epoch observation values (Epoch: 2025-12-20T03:07:49.570Z)
Latitude
65.01655°
Longitude
-121.8535°
Altitude
1,043.055 km
Speed
7.296 km/s
True Right ascension
00h 56m 15s
True Declination
64° 53' 23"
Sunlit
Object was in daylight at epoch
Visualization orbit readout
Latitude
Unknown
Longitude
Unknown
Altitude
Unknown
Speed
Unknown
Apparent Right ascension
Unknown
Apparent Declination
Unknown
Sunlit
N/A
Visualization observer readout
Local Sidereal Time
03:21:48
Azimuth
Unknown
Elevation
Unknown
Doppler factor
Unknown
Orbital elements
Apogee altitude
1,052.662 km
Perigee altitude
844.093 km
Semi-major axis
7,326.514 km
Eccentricity
0.01423
Inclination
99.5832°
RAAN
35.1943°
Arg. of periapsis
207.9662°
True anomaly
218.75707°
Mean anomaly
219.7867°
Eccentric anomaly
219.27048°
Mean motion
3.46096 °/min
Orbital period
104.02 mins
BSTAR
0.00027581
Loading maneuver chart data...
Computing Atmospheric mass density...

Documentation

Showing up to 5 results
|